POPACS 3

Last updated on Sat Aug 15 2026 00:03:44 GMT+0000 (Coordinated Universal Time)

1 39270U 13055F 26226.57266362 .00003152 00000+0 75032-4 0 9991 2 39270 81.0039 165.8184 0546273 251.8217 102.2797 14.57072423647055
UTC large
Height (km)
Speed (km/s)
/
Latitude / Longitude
Inclination (degrees)
Orbital Period (minutes)
Azimuth
Elevation
Range (km)
Doppler Factor

Next 0 passes for location: London (51.5072 / 0.1276)

No passes found over London.
POPACS 3